Wind_Speed
6 5 5 5 6 5 5 5 6 6 6 6 5 5 5 6 5 5 5 6 6 6 6 6 6 7 7 7 7 6 6 6 6 6 7 6 7 7 8 8 9 9 9
4 4 4 4 4 4 5 5 5 5 5 5 5 5 5 5 5 5 5 6 6 7 7 7 7 7 7 7 8 7 6 6 7 7 7 8 8 8 9 10 10 10 11
2 2 2 3 3 4 4 5 5 5 5 4 4 4 5 5 6 6 6 6 6 6 6 6 6 7 7 7 8 8 7 7 7 8 8 9 9 9 9 10 11 12 12
1 2 2 2 3 3 4 4 4 4 4 4 5 5 6 6 6 7 7 6 6 6 7 7 7 8 8 8 9 9 8 8 8 8 9 10 10 10 11 11 12 13 13
3 4 3 3 3 4 5 5 5 5 5 5 6 6 7 7 7 7 8 7 7 7 7 8 9 9 9 9 10 9 10 9 9 10 11 11 12 12 13 13 13 13 13
5 5 5 4 5 5 6 6 6 6 6 6 7 8 8 8 8 8 9 9 9 9 9 9 9 10 10 10 10 11 11 11 11 11 12 12 13 13 14 14 13 14 14
6 6 6 6 6 7 8 7 7 8 8 8 8 8 9 8 8 9 10 10 10 10 10 10 11 11 11 12 12 12 12 12 13 13 14 14 14 14 14 14 14 15 15
6 6 7 7 7 7 8 8 8 9 9 9 9 9 9 9 9 10 11 11 12 12 12 12 12 13 13 14 13 13 13 14 14 15 15 16 16 16 16 16 16 16 16
8 8 9 9 9 8 9 10 10 10 11 11 11 11 11 11 11 12 12 12 13 13 13 14 14 15 15 15 15 15 15 15 16 16 17 17 17 18 18 18 17 17 17
11 11 11 11 10 11 11 11 11 11 11 11 12 12 12 13 13 13 14 14 14 14 14 15 16 17 16 17 17 17 17 17 18 18 19 19 19 19 19 19 19 18 18
12 12 13 12 12 12 12 11 12 12 12 13 13 14 14 14 14 14 15 15 16 16 16 17 17 17 18 19 19 19 19 19 20 20 20 20 20 20 20 20 19 20 20
14 14 14 14 14 14 13 14 14 14 14 14 14 14 15 15 15 16 16 17 17 18 18 19 18 19 19 19 19 20 20 21 22 22 22 21 21 21 21 20 20 21 21
17 16 16 16 16 16 16 16 16 16 16 16 16 16 17 17 18 18 18 18 19 19 20 20 20 20 20 21 21 21 22 22 22 23 22 22 22 22 22 22 22 22 22
18 18 18 17 18 18 18 18 18 19 18 18 18 19 19 19 19 20 20 20 20 22 22 22 22 21 22 22 23 23 23 23 22 22 23 22 22 23 23 23 23 23 23
19 19 20 20 19 19 19 19 19 19 20 20 20 21 22 22 22 22 23 23 23 23 23 23 23 23 23 23 24 24 24 23 23 22 23 23 23 24 24 24 23 23 23
22 21 20 21 20 21 21 21 22 21 22 22 22 24 24 24 24 24 24 24 24 24 24 25 25 25 25 25 24 25 24 23 22 22 23 24 24 24 24 24 24 24 23
22 23 24 23 23 23 24 24 24 24 24 24 25 25 25 25 25 26 26 26 26 27 27 26 26 26 25 25 25 24 24 24 24 23 23 24 25 25 25 25 25 25 24
23 24 24 24 24 25 25 25 25 25 26 26 26 27 26 26 26 27 27 27 27 27 28 27 27 26 26 26 25 25 25 25 25 25 25 25 25 25 26 26 26 25 25
24 25 26 27 26 27 26 27 27 28 28 28 28 28 27 27 27 27 27 27 27 27 28 28 28 28 28 27 26 26 26 26 25 26 26 26 26 26 26 26 26 26 25
26 26 27 27 28 28 28 29 28 28 27 27 27 28 28 28 28 28 28 28 28 28 28 28 28 28 28 28 27 26 27 27 27 27 27 26 26 26 26 27 26 25 25
27 27 27 28 28 29 29 29 28 27 27 28 29 29 29 29 29 29 30 29 29 29 28 28 28 27 27 27 27 28 27 28 28 28 28 27 27 27 27 27 26 26 26
29 29 29 29 29 30 30 30 28 28 29 29 29 30 30 29 30 31 31 31 30 29 29 29 28 28 28 28 28 28 29 29 28 28 28 28 28 28 28 27 27 27 27
30 30 31 31 31 31 31 31 29 29 29 30 29 30 31 31 32 32 32 31 31 30 29 28 28 28 29 29 29 29 30 29 28 28 29 29 28 28 28 28 28 28 27
32 32 32 32 31 31 32 31 31 31 31 31 31 31 32 31 32 32 32 33 31 29 29 29 28 29 30 30 30 30 30 29 29 29 29 29 28 27 27 28 28 28 28
32 32 31 32 32 31 31 31 31 31 31 31 31 31 32 32 32 33 33 33 31 30 30 29 29 29 29 30 30 29 29 29 30 29 29 29 28 28 28 29 29 29 29
31 31 31 31 31 32 32 32 31 31 32 31 31 31 31 32 32 31 31 30 30 30 30 29 29 30 29 29 29 29 30 30 29 28 28 29 29 29 29 30 30 30 30
Wind_Direction
58 59 56 50 50 51 52 46 40 36 34 31 30 28 21 20 19 14 8 4 1 357 355 352 352 351 351 350 341 323 316 313 301 298 298 299 302 296 294 294 289 291 295
53 60 55 44 41 39 44 41 33 29 23 20 19 15 9 7 7 4 356 352 349 347 347 352 353 347 346 345 341 327 315 312 305 297 295 301 301 299 297 296 294 293 296
37 36 35 27 28 21 25 23 19 14 8 2 355 350 347 347 352 351 345 342 340 338 334 334 338 333 330 330 330 322 312 310 309 302 300 302 300 296 298 298 298 298 297
318 338 349 2 2 352 352 357 360 359 356 352 345 342 341 338 335 337 334 332 328 323 319 318 320 317 315 316 316 314 312 306 304 302 302 302 300 299 297 297 296 296 296
303 310 314 318 328 328 330 333 334 333 330 332 331 331 333 328 324 326 328 321 316 316 313 312 312 310 308 309 309 309 311 307 304 301 301 301 299 298 296 295 294 295 295
289 296 300 296 303 310 315 316 319 316 315 319 323 325 323 318 317 321 321 315 310 310 309 306 304 305 304 305 307 306 308 308 306 303 299 297 298 297 296 295 293 293 295
279 282 291 292 294 300 306 309 310 308 307 309 312 316 316 316 314 314 315 313 308 304 302 302 300 302 302 301 303 304 305 305 305 305 302 298 296 295 294 293 293 293 294
280 277 280 278 282 292 300 305 307 309 307 305 303 305 308 309 306 305 307 307 306 302 300 300 299 299 300 300 302 305 305 303 303 303 302 299 294 294 294 294 293 294 294
285 283 278 278 286 293 298 298 301 304 303 302 298 295 298 299 297 298 301 303 304 301 297 297 296 296 298 299 300 302 302 301 300 301 302 300 297 295 295 294 295 294 292
287 285 282 283 286 293 296 298 298 301 301 300 296 293 292 293 295 297 298 300 300 299 300 298 295 294 296 295 298 298 297 297 297 298 300 301 298 296 296 296 294 294 293
283 282 280 285 287 290 294 296 297 298 299 297 295 293 290 290 292 294 296 297 296 296 298 297 295 293 294 296 296 295 294 294 296 297 297 299 300 299 298 296 295 294 292
279 282 281 282 282 283 286 288 290 292 293 294 295 292 289 288 290 292 294 295 295 294 295 296 295 294 295 296 295 293 292 293 295 295 296 296 296 297 297 295 294 293 291
276 279 281 281 280 279 280 283 285 286 287 289 291 292 290 289 289 289 291 292 292 293 297 299 298 297 296 297 297 295 294 293 292 291 292 293 293 295 297 297 295 294 291
277 278 279 277 281 284 286 284 283 283 284 285 287 289 290 288 288 288 290 291 291 294 297 298 297 296 297 297 298 296 294 292 289 289 290 290 291 293 295 297 297 296 292
278 279 278 280 284 286 288 288 284 283 283 285 287 287 288 287 286 287 289 292 293 294 294 295 295 295 296 297 297 296 295 293 289 288 289 290 292 293 294 295 296 297 294
277 278 282 282 284 286 287 284 282 282 284 285 285 285 286 286 285 286 287 289 289 290 290 292 294 294 295 296 296 295 295 294 290 288 289 290 291 292 294 295 294 295 293
277 279 284 284 281 285 288 286 286 284 288 286 284 284 284 284 284 284 285 285 287 289 291 292 293 294 294 295 295 294 293 293 291 287 288 290 291 292 293 294 294 294 292
278 280 281 282 283 283 286 287 286 286 286 285 285 283 281 281 282 284 284 286 288 288 291 290 292 291 292 293 292 291 291 292 291 288 287 289 291 292 293 292 292 292 291
278 280 281 282 283 286 288 288 288 286 285 285 282 279 278 280 281 283 284 286 288 290 292 290 293 291 289 290 290 289 290 291 291 289 287 288 290 291 292 292 291 291 290
280 280 281 283 284 286 287 288 289 288 285 283 279 276 277 278 280 282 283 285 288 289 291 291 292 291 289 287 287 288 289 288 289 289 289 289 289 290 291 291 290 290 289
280 282 282 282 283 284 286 288 287 287 285 282 278 276 277 278 281 283 283 285 287 289 289 290 290 289 288 289 288 287 289 288 286 287 289 288 288 290 290 290 290 289 287
279 281 282 283 284 284 284 286 285 285 283 281 276 276 276 278 279 282 283 285 286 287 288 287 287 286 286 287 287 287 287 287 287 286 287 287 288 290 290 290 289 288 287
281 280 282 283 283 283 284 285 284 285 283 280 277 277 277 279 282 283 282 285 286 286 287 286 285 285 285 285 286 285 286 286 284 284 285 287 289 290 289 288 288 287 287
282 279 278 279 280 281 282 284 284 284 282 281 281 281 279 278 280 281 282 283 285 285 285 284 285 285 285 285 285 284 285 284 283 283 284 286 287 287 288 289 288 288 288
282 280 279 279 278 278 279 281 282 282 281 281 283 283 281 280 280 281 282 282 283 282 282 282 283 284 284 284 284 284 284 285 284 284 284 285 286 288 289 288 287 287 287
279 279 279 279 278 279 279 282 283 283 281 281 281 282 282 281 281 281 283 283 282 280 280 280 282 282 283 282 283 284 285 285 285 284 284 284 285 287 287 287 286 286 285
Height
5897 5896 5896 5895 5895 5894 5893 5893 5892 5892 5891 5890 5890 5889 5889 5888 5887 5886 5886 5885 5884 5883 5882 5881 5880 5879 5878 5877 5876 5875 5874 5874 5874 5874 5873 5873 5872 5872 5872 5871 5871 5870 5869
5897 5897 5896 5895 5895 5894 5894 5893 5893 5892 5891 5891 5890 5889 5889 5888 5887 5886 5885 5884 5883 5882 5881 5881 5880 5879 5878 5876 5875 5875 5874 5873 5873 5873 5872 5871 5871 5870 5870 5869 5868 5868 5867
5897 5897 5896 5895 5895 5895 5894 5893 5892 5891 5891 5890 5890 5889 5888 5887 5886 5885 5884 5883 5883 5882 5881 5880 5879 5878 5877 5876 5875 5874 5873 5872 5871 5871 5870 5870 5869 5869 5868 5867 5866 5865 5864
5897 5897 5896 5895 5895 5895 5894 5893 5892 5891 5891 5890 5889 5888 5887 5886 5885 5884 5883 5883 5882 5881 5880 5879 5878 5877 5876 5875 5874 5873 5872 5871 5870 5869 5868 5867 5867 5866 5865 5864 5863 5862 5860
5896 5896 5895 5895 5894 5894 5894 5893 5892 5891 5890 5889 5888 5887 5886 5885 5884 5883 5882 5881 5880 5879 5878 5877 5876 5875 5874 5873 5872 5871 5870 5869 5868 5867 5866 5864 5864 5862 5862 5861 5860 5858 5857
5896 5895 5894 5893 5893 5893 5892 5892 5891 5890 5889 5888 5887 5886 5885 5884 5883 5882 5881 5880 5879 5878 5877 5876 5875 5874 5872 5871 5870 5869 5868 5866 5865 5864 5863 5862 5861 5860 5858 5857 5856 5855 5854
5894 5893 5893 5892 5891 5891 5890 5890 5889 5888 5887 5886 5885 5884 5883 5882 5881 5880 5879 5878 5877 5875 5874 5874 5873 5871 5870 5869 5868 5867 5865 5864 5863 5861 5860 5859 5858 5856 5855 5853 5852 5851 5850
5892 5891 5891 5890 5890 5889 5888 5888 5887 5886 5885 5884 5883 5882 5881 5880 5879 5878 5877 5875 5874 5873 5872 5871 5870 5868 5867 5866 5865 5864 5862 5861 5860 5858 5857 5855 5854 5852 5851 5850 5848 5847 5846
5889 5889 5888 5888 5887 5887 5886 5885 5885 5883 5882 5881 5880 5879 5878 5877 5876 5875 5874 5873 5871 5870 5869 5868 5866 5865 5864 5863 5862 5860 5859 5858 5856 5855 5853 5851 5850 5848 5846 5845 5843 5843 5841
5887 5886 5885 5884 5884 5884 5883 5882 5881 5880 5879 5878 5877 5876 5876 5874 5873 5872 5871 5870 5868 5867 5865 5864 5863 5861 5860 5859 5858 5856 5855 5854 5852 5850 5849 5847 5845 5843 5842 5840 5839 5837 5836
5883 5883 5882 5881 5881 5880 5879 5878 5878 5877 5876 5875 5874 5873 5872 5871 5870 5868 5867 5866 5864 5863 5862 5860 5859 5857 5856 5855 5853 5852 5850 5849 5847 5845 5844 5842 5840 5838 5837 5835 5833 5832 5830
5879 5879 5878 5877 5877 5876 5875 5874 5874 5873 5872 5871 5870 5869 5868 5867 5866 5864 5863 5861 5860 5859 5858 5856 5854 5853 5851 5850 5848 5846 5845 5843 5842 5840 5838 5837 5835 5833 5831 5830 5828 5826 5825
5875 5874 5874 5873 5872 5871 5870 5870 5869 5868 5868 5867 5866 5865 5864 5863 5861 5860 5858 5857 5855 5854 5853 5851 5849 5848 5846 5844 5842 5841 5839 5837 5836 5834 5832 5831 5829 5828 5826 5824 5822 5820 5818
5870 5870 5869 5868 5868 5867 5866 5865 5864 5864 5863 5862 5861 5860 5859 5857 5856 5854 5853 5851 5850 5849 5847 5845 5844 5842 5840 5839 5837 5835 5833 5831 5829 5828 5826 5825 5823 5822 5820 5818 5815 5813 5812
5865 5865 5864 5863 5862 5861 5860 5859 5859 5858 5857 5856 5855 5854 5853 5852 5850 5849 5847 5846 5844 5843 5842 5840 5838 5836 5835 5833 5831 5828 5826 5824 5823 5821 5820 5819 5817 5815 5813 5811 5809 5807 5805
5859 5859 5858 5857 5856 5855 5854 5853 5852 5852 5851 5850 5849 5848 5847 5846 5845 5843 5841 5840 5838 5837 5835 5834 5832 5830 5828 5826 5824 5822 5820 5818 5816 5815 5813 5812 5810 5809 5807 5805 5803 5801 5799
5853 5853 5852 5851 5850 5849 5848 5847 5846 5845 5844 5843 5843 5842 5840 5839 5838 5836 5835 5833 5832 5830 5828 5827 5825 5823 5821 5820 5818 5815 5813 5812 5810 5808 5806 5805 5803 5802 5800 5798 5796 5794 5792
5848 5847 5846 5845 5844 5843 5842 5841 5839 5838 5837 5837 5836 5835 5833 5832 5831 5830 5828 5826 5825 5823 5822 5820 5818 5816 5815 5813 5811 5809 5807 5805 5803 5801 5799 5798 5796 5794 5792 5791 5789 5787 5785
5841 5840 5839 5838 5837 5836 5835 5833 5832 5831 5830 5828 5827 5826 5825 5824 5823 5822 5820 5819 5817 5816 5814 5812 5810 5809 5807 5805 5803 5801 5800 5798 5796 5794 5792 5790 5789 5787 5785 5783 5781 5779 5778
5834 5833 5832 5831 5830 5829 5827 5826 5824 5823 5821 5820 5818 5817 5817 5816 5815 5814 5812 5811 5809 5808 5806 5804 5802 5800 5799 5796 5795 5794 5792 5791 5789 5787 5785 5783 5781 5779 5777 5775 5773 5772 5770
5827 5825 5824 5823 5822 5821 5820 5818 5816 5815 5813 5811 5810 5809 5808 5808 5806 5805 5804 5802 5801 5799 5798 5796 5794 5793 5791 5789 5787 5786 5784 5782 5780 5779 5777 5775 5773 5771 5770 5768 5766 5764 5763
5819 5817 5816 5815 5814 5813 5811 5810 5808 5806 5804 5802 5801 5800 5799 5798 5797 5796 5795 5793 5792 5791 5789 5788 5786 5785 5783 5781 5779 5778 5776 5774 5772 5771 5769 5767 5766 5764 5762 5760 5758 5756 5755
5810 5809 5808 5807 5806 5804 5803 5801 5799 5797 5795 5793 5792 5791 5791 5790 5788 5787 5785 5784 5782 5782 5780 5779 5778 5776 5774 5773 5771 5769 5768 5766 5764 5763 5761 5759 5757 5755 5754 5752 5750 5748 5746
5801 5800 5799 5798 5797 5795 5793 5792 5790 5788 5786 5785 5783 5782 5781 5780 5779 5777 5776 5774 5773 5773 5771 5770 5769 5767 5766 5764 5762 5761 5759 5757 5756 5754 5752 5751 5749 5747 5746 5744 5742 5740 5739
5791 5790 5789 5788 5787 5786 5784 5782 5781 5779 5777 5775 5774 5773 5771 5770 5769 5768 5767 5765 5764 5763 5762 5761 5760 5758 5757 5755 5753 5752 5750 5749 5747 5745 5744 5742 5741 5739 5737 5736 5734 5732 5730
5782 5781 5780 5778 5777 5776 5774 5773 5771 5769 5767 5766 5765 5763 5762 5761 5759 5758 5756 5754 5753 5753 5752 5751 5750 5749 5747 5746 5744 5743 5741 5740 5738 5736 5735 5734 5732 5730 5729 5727 5725 5724 5722